GFSMA_prec_cthk_141.txt.gz
RH
39 40 43 44 46 50 47 48 56 57 56 53 54 59 63 69 74 80 82 84 80 81 83 78 70 64 69 82 82 80 65 59 59 57 56 58 68 70 72 76 76 69 71
38 40 44 43 45 47 49 49 48 50 48 43 40 41 42 45 51 59 70 76 82 83 87 89 81 77 84 83 85 96 89 71 64 60 57 59 70 69 69 75 75 75 69
32 38 43 38 42 44 44 44 46 45 42 42 40 38 37 37 40 46 50 53 61 69 70 92 91 74 82 77 87 81 95 93 72 69 61 58 67 70 68 71 76 79 74
25 26 30 32 35 40 37 34 36 35 31 31 39 42 43 40 39 39 40 40 37 38 48 58 64 70 71 66 77 82 95 98 93 80 73 64 61 67 69 70 73 78 79
24 24 24 24 25 25 27 28 30 30 28 27 30 38 41 44 43 42 38 32 29 29 33 37 41 49 57 58 67 81 90 82 96 78 71 70 68 63 67 70 72 74 79
21 21 22 22 22 22 21 21 22 24 23 25 25 31 33 44 48 44 38 34 32 31 31 33 39 39 51 61 65 81 79 72 78 74 74 75 82 79 71 70 73 74 76
21 21 20 20 20 20 20 21 23 24 24 24 22 21 24 27 38 43 42 40 38 35 37 40 46 46 52 58 57 60 63 71 74 83 65 69 70 78 81 82 74 72 74
18 19 20 22 22 22 22 22 22 22 23 26 27 27 26 27 33 42 43 46 50 45 42 42 45 51 53 55 53 54 52 55 72 72 71 62 69 76 78 82 84 83 81
15 15 16 17 18 20 23 25 25 26 27 30 33 35 38 36 35 37 45 49 55 60 54 46 48 53 54 51 50 53 51 52 59 59 66 56 68 80 82 81 75 84 87
16 16 16 16 17 18 20 21 22 25 29 34 39 43 43 43 44 41 41 49 51 55 62 51 51 53 57 59 57 57 55 52 59 57 59 62 67 83 84 78 82 82 83
20 20 19 19 20 20 20 22 25 28 28 30 33 42 49 51 51 50 47 52 49 49 51 52 48 44 42 46 46 47 56 57 56 61 63 67 69 78 79 84 91 84 85
25 25 26 26 27 27 27 28 29 32 32 34 35 38 43 50 57 60 56 55 61 58 53 56 53 47 44 44 43 44 45 48 51 48 52 66 71 75 74 83 90 88 89
29 30 31 32 33 33 34 36 37 38 39 38 40 46 48 50 52 55 61 63 65 64 66 64 69 64 58 56 47 45 46 44 45 46 51 53 68 75 72 78 87 91 90
36 37 37 36 37 39 40 42 48 48 49 47 48 50 55 59 61 64 67 71 72 79 77 78 80 70 66 60 52 44 43 46 46 45 44 49 59 71 75 77 84 88 91
41 41 40 39 41 42 44 49 53 58 56 54 55 58 64 69 72 77 82 88 83 83 89 94 92 83 71 60 59 50 46 47 51 47 46 47 57 64 74 79 83 90 91
42 41 39 39 42 46 46 50 53 62 62 62 65 68 71 78 85 93 94 93 90 88 86 87 85 77 69 71 63 52 45 43 46 50 51 46 50 61 73 83 89 89 93
39 37 35 36 42 42 47 49 49 51 50 53 63 72 82 91 96 97 97 97 93 88 86 83 82 80 69 60 49 47 46 45 46 52 56 53 48 51 66 74 93 95 95
35 30 28 27 31 38 39 39 41 40 36 31 40 48 56 74 87 96 97 97 97 94 90 88 78 66 59 56 51 48 49 52 53 55 62 64 60 58 62 58 76 83 88
33 29 28 29 33 36 31 34 31 34 36 30 35 46 43 46 52 58 66 82 83 88 84 79 71 63 60 56 53 53 54 56 58 61 63 67 64 67 72 69 86 84 98
31 30 32 36 36 32 32 32 30 25 26 38 41 39 40 37 43 39 37 44 41 34 38 36 39 40 41 44 49 49 50 56 65 70 72 71 71 69 68 82 77 81 93
32 35 33 35 37 34 34 33 33 27 26 25 28 36 34 33 35 40 31 30 29 25 23 24 22 19 16 19 23 27 37 49 61 68 67 65 65 65 72 70 84 81 87
36 33 32 30 37 36 38 34 28 26 22 20 20 23 26 25 21 24 26 29 22 19 18 17 17 16 14 11 10 12 14 16 29 43 61 65 64 63 64 65 64 73 80
35 32 31 34 38 36 33 28 26 22 20 18 20 18 16 15 24 20 20 18 17 16 14 13 12 11 10 9 9 8 9 12 18 16 19 28 37 45 59 70 65 61 68
34 33 33 29 30 36 33 30 30 30 27 23 25 20 16 10 9 9 9 9 8 8 8 9 9 9 9 9 9 9 8 8 10 11 9 9 10 12 15 26 40 52 56
36 29 30 34 37 32 32 29 26 22 22 22 21 24 23 17 10 9 7 7 7 6 7 7 7 7 6 6 6 6 6 6 5 8 7 9 8 7 6 10 14 12 16
45 37 35 32 32 35 34 31 27 22 20 18 16 16 22 21 17 7 7 7 7 7 7 7 7 7 7 7 7 7 7 7 7 8 7 7 6 6 6 8 7 7 7

GFSMA_prec_cthk_147.txt.gz
RH
33 37 42 42 41 42 42 42 41 40 40 44 46 49 48 47 47 47 43 38 39 44 54 61 68 67 72 75 78 73 76 85 90 85 81 70 74 72 70 63 73 73 75
25 26 30 35 37 34 34 34 36 33 33 34 36 38 37 33 34 37 36 32 29 30 33 39 47 59 69 75 79 76 84 73 87 83 81 75 70 70 73 67 70 78 73
24 25 28 29 30 30 32 29 32 33 28 27 29 31 31 28 26 24 23 25 29 27 27 29 32 40 48 56 63 68 67 66 78 92 83 72 67 73 71 71 66 80 77
22 22 22 22 22 23 23 23 23 22 21 21 20 21 22 23 22 20 20 24 28 31 29 28 28 31 37 42 46 52 54 58 65 73 75 65 60 70 77 75 71 74 90
20 20 19 19 19 19 19 18 18 17 16 16 16 16 16 18 18 19 21 23 27 33 37 33 29 27 28 31 33 43 52 55 59 60 61 62 63 78 85 80 76 73 85
19 18 17 17 17 16 16 15 14 14 13 12 13 13 14 14 16 17 19 20 21 25 35 37 37 34 35 34 34 38 45 52 60 64 57 60 64 74 79 83 79 79 81
15 15 14 14 14 13 12 11 11 11 12 12 12 13 15 16 17 19 22 26 27 31 37 41 41 42 42 41 34 35 44 48 53 57 55 57 56 60 75 81 83 85 85
15 14 14 14 13 13 12 12 12 12 12 11 12 14 19 18 20 22 26 30 33 36 37 44 50 51 52 48 48 41 43 49 50 55 59 66 59 65 68 75 82 92 88
17 17 17 16 16 16 16 16 15 15 14 14 16 18 23 25 22 26 29 32 36 40 44 46 50 56 60 53 49 52 53 55 56 54 58 59 61 70 68 71 82 86 91
21 20 20 19 19 19 20 20 19 19 18 19 21 23 26 26 27 26 27 35 36 39 43 49 51 55 62 61 62 63 61 59 60 58 57 51 48 51 71 77 83 85 89
27 26 24 24 24 24 24 24 23 23 23 24 26 26 26 27 29 31 31 29 35 45 48 51 55 60 62 62 59 70 66 66 67 65 59 54 55 53 53 68 92 88 86
33 31 30 30 30 30 30 29 28 27 27 28 29 29 30 32 35 35 34 36 39 49 50 57 55 57 60 59 68 68 67 64 64 65 66 64 62 56 56 62 83 93 87
36 34 33 33 32 32 30 29 28 27 27 28 29 30 33 37 42 47 48 47 49 52 58 54 53 56 57 59 60 70 62 55 50 52 57 59 64 59 64 58 60 66 76
40 38 36 36 35 30 27 26 26 25 25 26 27 30 35 38 46 50 55 59 59 61 62 60 57 56 57 63 65 66 63 60 56 48 48 45 43 47 52 56 57 54 55
44 40 38 36 33 28 23 22 22 22 25 26 28 29 31 35 39 48 53 63 66 67 70 68 67 67 63 64 69 71 71 67 65 58 53 51 49 49 51 48 48 50 53
44 40 38 35 29 24 22 20 19 18 19 20 23 25 30 28 35 42 50 63 67 72 76 75 76 78 77 73 73 78 76 71 75 71 60 57 58 56 56 56 49 42 43
46 42 38 32 27 24 21 19 19 18 16 16 16 19 27 29 37 40 50 61 58 77 80 90 91 92 90 87 84 85 88 83 82 81 80 64 65 61 63 57 52 46 45
48 43 37 30 26 24 22 20 19 15 17 17 19 17 20 28 31 35 47 61 50 68 66 74 86 95 96 97 96 97 94 91 89 84 85 85 73 71 63 61 55 49 48
48 42 33 28 24 23 23 20 17 16 15 19 19 19 19 18 26 39 38 52 44 49 46 52 51 58 68 78 88 98 96 95 97 92 89 87 74 70 70 67 61 57 56
46 40 32 29 25 23 21 19 18 18 20 21 21 22 22 20 24 29 35 35 48 33 44 39 44 38 41 45 50 70 90 96 84 83 80 74 76 68 63 60 56 51 50
41 39 33 26 23 21 20 21 19 20 20 24 28 24 19 16 17 24 28 35 39 40 31 38 34 32 32 32 32 33 40 59 57 57 58 53 53 52 51 49 48 49 53
41 34 30 25 24 21 22 20 21 20 23 26 27 25 20 19 20 18 23 28 27 28 40 36 24 22 17 21 22 21 23 28 28 21 20 24 27 38 42 49 55 59 57
42 36 30 28 23 22 20 21 23 23 28 30 27 24 21 19 19 15 19 18 18 23 21 24 30 32 21 22 19 18 14 14 10 9 10 11 12 21 19 18 23 31 32
42 37 30 26 21 23 22 25 25 24 26 25 24 19 18 16 13 17 21 16 18 12 10 9 13 20 19 21 21 12 9 14 14 7 7 8 9 12 17 12 12 14 20
42 34 29 27 23 24 27 27 27 25 26 26 24 19 15 12 11 11 13 18 16 11 9 8 8 8 8 10 11 9 8 8 9 10 8 7 7 7 11 10 8 9 10
38 32 29 29 29 29 30 30 29 26 27 26 24 21 18 16 15 13 12 11 12 11 11 11 11 9 9 9 9 8 9 8 8 8 8 8 8 7 7 6 6 6 5

GFSMA_prec_cthk_150.txt.gz
RH
28 32 37 41 43 44 44 43 43 42 41 40 41 44 44 44 46 46 47 45 43 42 37 37 43 56 64 66 68 66 63 65 66 68 73 70 76 81 83 81 76 67 64
26 27 28 30 33 33 36 37 35 34 33 35 35 33 31 36 37 36 35 30 30 33 34 29 31 39 49 59 66 69 69 59 65 69 59 63 74 76 77 76 80 75 73
26 27 28 29 29 29 32 31 32 30 27 31 31 27 25 23 23 21 21 20 19 19 19 23 25 28 33 37 41 49 58 64 59 65 56 57 65 73 74 73 73 74 76
23 23 23 23 23 23 22 22 21 20 20 19 18 18 18 17 17 17 17 17 19 23 24 21 25 26 27 32 37 40 44 49 47 52 53 55 66 77 83 68 68 69 77
20 20 19 19 19 19 18 17 17 16 16 15 15 14 14 14 13 16 17 20 20 20 19 23 29 34 31 31 31 33 39 46 48 47 51 59 62 70 70 69 72 77 88
19 18 17 17 16 15 14 14 13 12 12 11 10 11 14 16 18 20 17 18 19 21 21 23 28 37 39 37 37 35 33 34 44 50 61 62 65 67 66 67 68 78 84
15 15 15 14 13 13 12 12 12 12 13 10 10 12 15 18 19 21 21 22 23 24 26 28 29 33 36 39 39 38 36 38 38 42 48 54 62 68 63 60 65 75 89
17 16 15 15 15 15 15 14 14 14 18 14 15 18 22 24 27 22 24 25 25 27 29 30 32 34 41 45 50 48 46 44 43 46 48 51 60 64 64 62 63 73 92
19 19 19 18 18 17 17 17 17 17 23 23 21 23 24 24 21 27 31 32 30 28 31 35 37 40 42 48 53 56 55 56 50 45 51 51 59 63 69 70 69 75 88
24 24 23 22 22 21 21 22 22 23 25 27 28 28 29 29 29 26 25 26 28 25 29 32 37 39 46 52 55 65 65 56 60 66 65 62 66 72 70 74 74 83 86
30 29 29 28 27 26 26 27 27 28 28 28 29 30 30 31 31 31 30 28 27 29 33 33 39 43 44 49 56 63 73 68 66 66 72 71 72 65 69 81 77 79 83
35 33 32 31 30 30 30 31 31 29 28 27 28 26 26 26 29 30 31 32 32 37 43 43 41 42 48 54 56 64 66 71 66 65 68 75 74 68 70 65 68 66 85
40 38 36 35 34 33 32 32 30 27 25 27 27 26 24 27 28 32 34 33 34 38 50 53 55 53 52 55 60 67 62 65 71 68 65 65 71 74 75 72 69 63 67
46 43 41 40 37 34 31 30 27 25 24 23 22 23 25 25 26 28 32 34 36 42 52 58 63 62 62 62 60 63 60 61 63 65 69 63 60 61 63 67 70 61 65
50 48 45 41 36 32 31 29 25 21 19 18 18 17 17 18 23 27 30 38 43 48 51 64 66 67 69 65 63 62 57 58 65 67 71 68 69 64 64 59 54 50 56
55 53 47 41 38 35 32 27 22 19 18 17 15 15 17 16 24 26 30 37 43 50 52 65 70 73 73 72 71 70 64 59 66 68 70 74 72 76 72 72 66 61 59
61 54 48 43 39 37 32 25 21 18 16 16 15 14 13 15 20 26 31 36 41 47 51 63 65 70 82 79 78 77 73 70 66 70 71 73 73 72 78 74 75 70 64
60 52 47 43 39 35 27 24 24 19 19 16 15 14 13 19 24 23 25 35 39 52 47 49 58 56 63 80 93 88 84 82 79 75 76 78 78 80 88 83 75 75 69
60 55 49 42 35 30 25 26 24 20 17 16 15 15 17 25 23 24 25 35 36 50 37 49 52 48 56 61 75 97 93 89 84 80 82 85 83 83 81 86 78 73 69
70 53 44 39 34 27 29 26 24 25 17 16 14 17 20 21 24 23 23 35 42 48 36 47 37 41 50 52 61 71 91 97 94 92 91 93 92 82 82 78 75 68 64
60 51 48 39 32 32 29 27 28 22 18 16 17 18 18 20 21 18 18 24 34 35 49 42 33 30 40 44 45 44 62 76 82 79 88 77 89 92 78 74 71 67 61
64 59 45 42 38 34 27 25 24 23 20 22 23 25 24 24 21 19 18 14 21 29 28 51 46 35 26 28 32 33 39 40 42 33 37 40 46 53 55 52 52 49 44
68 57 49 49 40 31 27 25 22 22 24 22 23 23 23 19 19 18 15 14 21 17 15 19 24 37 37 30 24 24 24 25 22 19 23 28 28 36 23 15 12 14 16
64 52 46 47 42 31 27 24 22 22 24 23 22 19 18 20 15 12 12 11 16 23 12 12 13 11 16 25 24 28 23 28 16 10 14 25 14 19 16 13 13 14 15
60 50 46 42 36 30 27 25 24 25 26 27 24 21 19 19 15 12 11 10 12 20 13 14 12 12 10 8 10 19 17 23 29 22 17 11 8 9 14 12 12 11 9
54 49 45 40 37 31 31 29 28 33 36 34 31 23 21 20 19 19 17 15 13 13 14 13 15 17 19 14 11 10 10 13 12 12 10 13 13 17 14 10 8 7 7

GFSMA_prec_cthk_153.txt.gz
RH
30 31 34 40 42 43 45 45 45 47 46 44 43 42 43 42 41 42 44 43 41 39 38 38 38 38 38 45 58 66 65 64 68 72 67 60 69 66 61 68 73 74 74
26 30 32 35 37 38 38 38 38 38 38 39 36 35 34 33 33 30 36 39 37 33 31 25 28 32 30 29 35 44 56 60 61 60 80 65 75 76 57 65 71 74 77
26 28 30 31 33 31 34 32 31 33 32 33 29 28 30 28 25 24 21 21 23 23 20 17 15 18 22 24 26 33 39 47 53 57 61 63 63 64 58 64 67 72 74
24 26 27 26 26 26 26 26 25 24 25 25 23 21 20 20 20 17 18 20 20 21 19 16 15 16 20 23 25 27 33 38 44 51 51 53 61 66 58 59 68 72 72
21 21 21 21 21 21 20 20 20 18 20 20 18 17 17 18 18 23 22 21 20 17 18 17 15 15 18 23 26 28 30 33 38 43 50 52 49 52 61 59 68 76 74
21 20 19 19 19 18 16 15 14 14 16 14 12 16 18 18 24 26 23 26 22 19 18 19 25 22 19 22 27 32 33 31 31 36 39 42 49 49 53 58 64 72 76
20 17 16 15 15 15 14 13 13 18 19 13 17 17 18 23 21 25 28 23 25 25 24 24 27 29 28 28 29 31 37 41 38 36 35 35 42 45 51 55 58 64 73
21 20 18 17 16 18 16 16 16 19 21 15 15 18 24 29 32 31 32 31 30 31 31 29 30 31 32 31 32 35 37 42 43 42 38 37 39 43 50 59 64 66 71
24 22 20 20 19 20 20 18 18 18 24 24 19 21 25 27 29 31 39 37 35 30 28 33 31 29 31 32 34 35 38 41 50 54 51 44 46 51 53 56 61 66 71
28 26 25 24 24 24 23 23 23 25 28 28 29 29 29 28 28 27 30 31 30 28 33 34 33 33 30 29 30 31 35 41 46 51 59 62 57 54 59 59 59 65 73
33 31 30 29 28 27 27 26 26 26 30 32 32 31 29 31 28 29 28 31 28 29 35 31 34 33 34 34 32 32 33 41 49 54 60 66 72 80 71 70 61 59 74
39 38 36 34 32 31 30 29 30 31 33 32 34 30 30 31 31 30 30 28 27 26 28 26 31 38 39 40 40 39 37 41 46 54 62 83 75 79 92 72 76 71 82
43 42 41 40 38 36 35 34 33 32 32 33 30 33 29 26 26 26 26 25 25 25 32 32 34 36 42 48 50 52 46 47 49 55 64 72 86 77 77 78 76 79 77
46 46 48 47 44 43 41 36 35 35 31 30 27 25 23 18 17 17 20 22 23 26 36 39 38 37 46 55 56 60 57 52 54 59 66 69 83 96 82 77 73 75 74
49 51 54 53 48 47 45 40 36 34 33 30 27 23 21 18 16 15 16 22 25 26 30 42 38 43 44 61 66 67 64 61 66 62 63 72 77 90 85 68 67 66 65
54 57 59 57 54 53 47 42 37 34 32 26 24 22 22 19 20 19 13 15 21 26 32 38 36 42 42 52 75 78 71 72 73 66 65 62 72 77 86 93 68 71 68
59 58 63 65 62 53 46 42 38 32 28 25 22 22 22 20 21 20 21 21 20 23 29 36 39 41 46 46 63 85 84 79 78 74 71 68 69 76 74 75 87 77 73
62 64 71 67 61 54 48 45 37 31 27 24 25 24 21 20 20 20 19 21 19 21 30 40 38 39 42 44 53 86 93 94 86 81 80 75 69 67 71 80 77 95 81
69 72 76 73 59 57 52 39 36 28 24 28 26 23 20 22 21 22 22 21 21 24 34 40 44 38 36 48 52 68 94 97 96 90 86 83 78 65 65 70 76 83 83
78 80 79 71 66 55 44 39 35 30 27 28 23 18 16 13 14 21 24 24 24 24 35 37 44 33 28 49 43 54 77 94 97 96 94 89 86 82 68 59 61 64 64
89 86 79 72 63 54 45 37 35 34 31 27 24 18 15 15 14 14 14 18 26 23 31 34 45 41 28 34 34 50 57 74 91 77 84 87 92 88 68 63 71 69 69
94 83 80 73 65 52 40 39 37 35 31 30 29 25 17 17 16 14 13 15 16 16 28 26 27 42 39 32 27 33 48 42 42 43 55 61 74 77 67 56 54 50 56
94 85 81 75 61 51 42 37 39 37 34 33 29 26 21 20 23 18 14 14 14 11 19 17 17 15 19 33 41 33 30 30 29 22 36 36 40 47 47 38 32 34 35
94 86 82 73 57 45 41 37 36 35 31 25 23 19 19 20 19 20 15 12 11 10 15 23 11 12 15 9 18 35 39 37 24 15 22 32 25 33 24 22 21 19 19
89 79 77 69 55 45 41 38 39 32 28 26 22 20 23 22 20 19 18 17 13 10 10 20 13 11 18 18 12 12 19 27 32 29 23 24 19 25 20 19 16 16 15
80 77 70 61 51 44 39 36 40 37 37 28 22 24 25 23 22 21 21 19 20 18 17 16 14 15 16 13 14 20 16 14 15 17 18 22 23 27 27 24 20 11 9